QTR1301 OTHH-HECA

Flight info

Callsign QTR1301
Flight time N/A
Altitude 28000
Route DATRI L564 BAT/N0499F290 L564 MIGMA/N0487F280 M550 MEVDO Y511 ITRUX/N0496F320 Y511 PMA Z712 PEGUR/N0495F340 Z712 WEJ L677 MENLI HECA/23C
Aircraft B77L/H-SDE1E2E3FGHIJ2J3J4J5M1RWXY/LB1D1

Departure

Time N/A
Airport Hamad International Airport (OTHH)

Arrival

Time 2026-04-27 11:12
Airport Cairo International Airport (HECA)
Time Latitude Longitude Altitude Speed Heading
2026-04-27 11:11 30.10817 31.40675 393 ft 0 kts 320°
2026-04-27 11:12 30.10820 31.40672 393 ft 3 kts 320°
2026-04-27 11:12 30.10852 31.40643 393 ft 7 kts 332°
2026-04-27 11:12 30.10908 31.40678 393 ft 12 kts 52°
2026-04-27 11:12 30.10979 31.40770 393 ft 17 kts 48°
2026-04-27 11:13 30.11070 31.40890 393 ft 21 kts 49°
2026-04-27 11:13 30.11181 31.41034 393 ft 25 kts 50°
2026-04-27 11:13 30.11301 31.41196 393 ft 25 kts 49°
2026-04-27 11:13 30.11437 31.41255 393 ft 20 kts 345°
2026-04-27 11:14 30.11557 31.41211 393 ft 15 kts 344°
2026-04-27 11:14 30.11649 31.41179 393 ft 11 kts 342°
2026-04-27 11:14 30.11716 31.41154 393 ft 8 kts 341°
2026-04-27 11:14 30.11761 31.41136 393 ft 5 kts 341°
2026-04-27 11:15 30.11787 31.41112 393 ft 4 kts 276°
2026-04-27 11:15 30.11781 31.41087 393 ft 2 kts 254°
2026-04-27 11:15 30.11776 31.41066 393 ft 2 kts 253°
2026-04-27 11:15 30.11772 31.41053 393 ft 1 kts 253°
2026-04-27 11:16 30.11769 31.41039 393 ft 1 kts 252°
2026-04-27 11:16 30.11766 31.41031 393 ft 1 kts 252°
2026-04-27 11:16 30.11765 31.41028 393 ft 0 kts 252°